When you browse on this site, cookies collect data to enhance your experience and personalize the content and advertising you see.
Visit our Privacy Policy to learn more. By continuing to use the site, you agree to this use of cookies and data.
EN

Hourly Weather Makiivka

Today, 11 July, Saturday

Time Temperature Precipitation Wind Pressure Humidity
00:00 +20°C° 0 mm 3 mps 748 mmHg 59%
01:00 +19°C° 0 mm 3 mps 748 mmHg 61%
02:00 +19°C° 0 mm 2 mps 748 mmHg 62%
03:00 +18°C° 0 mm 2 mps 748 mmHg 63%
04:00 +18°C° 0 mm 2 mps 748 mmHg 64%
05:00 +18°C° 0 mm 3 mps 748 mmHg 65%
06:00 +19°C° 0 mm 3 mps 748 mmHg 67%
07:00 +20°C° 0 mm 3 mps 748 mmHg 61%
08:00 +22°C° 0 mm 3 mps 748 mmHg 55%
09:00 +25°C° 0 mm 4 mps 749 mmHg 49%
10:00 +26°C° 0 mm 4 mps 748 mmHg 46%
11:00 +27°C° 0 mm 4 mps 748 mmHg 42%
12:00 +28°C° 0 mm 4 mps 748 mmHg 38%
13:00 +28°C° 0 mm 4 mps 748 mmHg 37%
14:00 +29°C° 0 mm 4 mps 748 mmHg 35%
15:00 +30°C° 0 mm 4 mps 747 mmHg 34%
16:00 +29°C° 0 mm 4 mps 747 mmHg 35%
17:00 +29°C° 0 mm 4 mps 746 mmHg 37%
18:00 +29°C° 0 mm 4 mps 746 mmHg 39%
19:00 +27°C° 0 mm 4 mps 746 mmHg 44%
20:00 +25°C° 0 mm 4 mps 746 mmHg 48%
21:00 +24°C° 0 mm 3 mps 746 mmHg 53%
22:00 +22°C° 0 mm 3 mps 746 mmHg 56%
23:00 +22°C° 0 mm 3 mps 745 mmHg 58%

Tomorrow, 12 July, Sunday

Time Temperature Precipitation Wind Pressure Humidity
00:00 +21°C° 0 mm 3 mps 745 mmHg 61%
01:00 +21°C° 0 mm 4 mps 745 mmHg 63%
02:00 +20°C° 0 mm 4 mps 745 mmHg 65%
03:00 +20°C° 0 mm 4 mps 744 mmHg 68%
04:00 +20°C° 0 mm 4 mps 744 mmHg 70%
05:00 +20°C° 0 mm 4 mps 744 mmHg 72%
06:00 +20°C° 0 mm 4 mps 743 mmHg 73%
07:00 +22°C° 0 mm 4 mps 743 mmHg 70%
08:00 +25°C° 0 mm 4 mps 743 mmHg 66%
09:00 +27°C° 0 mm 4 mps 743 mmHg 62%
10:00 +28°C° 0 mm 4 mps 743 mmHg 57%
11:00 +30°C° 0 mm 4 mps 743 mmHg 52%
12:00 +33°C° 0 mm 4 mps 742 mmHg 46%
13:00 +33°C° 0 mm 4 mps 742 mmHg 45%
14:00 +33°C° 0 mm 3 mps 742 mmHg 44%
15:00 +33°C° 0 mm 3 mps 741 mmHg 43%
16:00 +33°C° 0.2 mm 3 mps 741 mmHg 45%
17:00 +31°C° 0.2 mm 3 mps 740 mmHg 47%
18:00 +31°C° 0.2 mm 3 mps 739 mmHg 49%
19:00 +29°C° 1.5 mm 3 mps 740 mmHg 59%
20:00 +26°C° 1.5 mm 3 mps 740 mmHg 69%
21:00 +24°C° 1.5 mm 2 mps 740 mmHg 79%
22:00 +23°C° 0.9 mm 2 mps 739 mmHg 80%
23:00 +23°C° 0.9 mm 2 mps 739 mmHg 80%

Day after tomorrow, 13 July, Monday

Time Temperature Precipitation Wind Pressure Humidity
00:00 +23°C° 0.9 mm 2 mps 739 mmHg 81%
01:00 +23°C° 0.1 mm 2 mps 739 mmHg 82%
02:00 +23°C° 0.1 mm 2 mps 738 mmHg 84%
03:00 +23°C° 0.1 mm 2 mps 738 mmHg 86%
04:00 +23°C° 0 mm 2 mps 738 mmHg 85%
05:00 +23°C° 0 mm 1 mps 737 mmHg 85%
06:00 +23°C° 0 mm 1 mps 737 mmHg 84%
07:00 +24°C° 0 mm 1 mps 737 mmHg 77%
08:00 +26°C° 0 mm 1 mps 737 mmHg 71%
09:00 +27°C° 0 mm 1 mps 737 mmHg 64%
10:00 +28°C° 0 mm 1 mps 737 mmHg 58%
11:00 +30°C° 0 mm 1 mps 737 mmHg 53%
12:00 +31°C° 0 mm 1 mps 737 mmHg 48%
13:00 +32°C° 0 mm 1 mps 737 mmHg 46%
14:00 +32°C° 0 mm 1 mps 736 mmHg 44%
15:00 +33°C° 0 mm 1 mps 736 mmHg 42%
16:00 +32°C° 0.6 mm 2 mps 736 mmHg 45%
17:00 +31°C° 0.6 mm 2 mps 735 mmHg 48%
18:00 +31°C° 0.6 mm 2 mps 735 mmHg 52%
19:00 +28°C° 2.8 mm 2 mps 735 mmHg 61%
20:00 +26°C° 2.8 mm 2 mps 736 mmHg 71%
21:00 +23°C° 2.8 mm 2 mps 736 mmHg 81%
22:00 +23°C° 0.4 mm 2 mps 736 mmHg 82%
23:00 +23°C° 0.4 mm 2 mps 736 mmHg 83%

14 July, Tuesday

Time Temperature Precipitation Wind Pressure Humidity
00:00 +21°C° 0.4 mm 2 mps 736 mmHg 85%
01:00 +21°C° 0 mm 2 mps 736 mmHg 86%
02:00 +20°C° 0 mm 2 mps 736 mmHg 87%
03:00 +20°C° 0 mm 3 mps 736 mmHg 88%
04:00 +20°C° 0 mm 3 mps 736 mmHg 89%
05:00 +20°C° 0 mm 3 mps 736 mmHg 89%
06:00 +20°C° 0 mm 3 mps 736 mmHg 90%
07:00 +20°C° 0 mm 4 mps 737 mmHg 88%
08:00 +20°C° 0 mm 4 mps 737 mmHg 87%
09:00 +20°C° 0 mm 4 mps 737 mmHg 86%
10:00 +20°C° 0 mm 4 mps 738 mmHg 82%
11:00 +21°C° 0 mm 5 mps 738 mmHg 79%
12:00 +21°C° 0 mm 5 mps 738 mmHg 75%
13:00 +22°C° 0 mm 5 mps 739 mmHg 72%
14:00 +22°C° 0 mm 5 mps 739 mmHg 69%
15:00 +23°C° 0 mm 6 mps 739 mmHg 66%
16:00 +22°C° 0.1 mm 6 mps 739 mmHg 66%
17:00 +22°C° 0.1 mm 6 mps 739 mmHg 67%
18:00 +22°C° 0.1 mm 6 mps 739 mmHg 68%
19:00 +21°C° 0.1 mm 5 mps 739 mmHg 72%
20:00 +19°C° 0.1 mm 4 mps 740 mmHg 76%
21:00 +18°C° 0.1 mm 4 mps 740 mmHg 79%
22:00 +18°C° 0 mm 4 mps 740 mmHg 82%
23:00 +17°C° 0 mm 4 mps 740 mmHg 85%

15 July, Wednesday

Time Temperature Precipitation Wind Pressure Humidity
00:00 +17°C° 0 mm 4 mps 740 mmHg 87%
01:00 +17°C° 0 mm 4 mps 740 mmHg 87%
02:00 +15°C° 0 mm 4 mps 741 mmHg 87%
03:00 +15°C° 0 mm 5 mps 741 mmHg 87%
04:00 +15°C° 0 mm 5 mps 741 mmHg 86%
05:00 +15°C° 0 mm 5 mps 741 mmHg 85%
06:00 +15°C° 0 mm 5 mps 742 mmHg 83%
07:00 +16°C° 0 mm 5 mps 742 mmHg 78%
08:00 +19°C° 0 mm 4 mps 742 mmHg 73%
09:00 +20°C° 0 mm 4 mps 743 mmHg 67%
10:00 +21°C° 0 mm 4 mps 743 mmHg 61%
11:00 +23°C° 0 mm 5 mps 743 mmHg 55%
12:00 +25°C° 0 mm 5 mps 743 mmHg 49%
13:00 +26°C° 0 mm 5 mps 743 mmHg 46%
14:00 +26°C° 0 mm 5 mps 743 mmHg 44%
15:00 +27°C° 0 mm 5 mps 743 mmHg 41%
16:00 +26°C° 0 mm 5 mps 743 mmHg 42%
17:00 +26°C° 0 mm 4 mps 743 mmHg 42%
18:00 +26°C° 0 mm 4 mps 743 mmHg 43%
19:00 +24°C° 0 mm 3 mps 744 mmHg 47%
20:00 +23°C° 0 mm 2 mps 744 mmHg 52%
21:00 +21°C° 0 mm 2 mps 744 mmHg 56%
22:00 +21°C° 0 mm 1 mps 744 mmHg 58%
23:00 +20°C° 0 mm 1 mps 744 mmHg 61%

16 July, Thursday

Time Temperature Precipitation Wind Pressure Humidity
00:00 +20°C° 0 mm 1 mps 744 mmHg 63%
01:00 +17°C° 0 mm 0 mps 744 mmHg 64%
02:00 +17°C° 0 mm 0 mps 744 mmHg 65%
03:00 +16°C° 0 mm 0 mps 744 mmHg 66%
04:00 +17°C° 0 mm 0 mps 744 mmHg 65%
05:00 +17°C° 0 mm 0 mps 744 mmHg 65%
06:00 +17°C° 0 mm 0 mps 744 mmHg 65%
07:00 +19°C° 0 mm 0 mps 744 mmHg 59%
08:00 +20°C° 0 mm 0 mps 744 mmHg 54%
09:00 +22°C° 0 mm 0 mps 744 mmHg 49%
10:00 +25°C° 0 mm 1 mps 744 mmHg 46%
11:00 +26°C° 0 mm 1 mps 744 mmHg 43%
12:00 +26°C° 0 mm 1 mps 744 mmHg 40%
13:00 +26°C° 0 mm 1 mps 744 mmHg 40%
14:00 +26°C° 0 mm 1 mps 744 mmHg 40%
15:00 +26°C° 0 mm 1 mps 743 mmHg 40%
16:00 +26°C° 0 mm 1 mps 743 mmHg 40%
17:00 +26°C° 0 mm 1 mps 743 mmHg 40%
18:00 +26°C° 0 mm 1 mps 743 mmHg 40%
19:00 +25°C° 0 mm 1 mps 743 mmHg 44%
20:00 +24°C° 0 mm 1 mps 743 mmHg 47%
21:00 +22°C° 0 mm 1 mps 743 mmHg 51%
22:00 +22°C° 0 mm 1 mps 743 mmHg 52%
23:00 +21°C° 0 mm 1 mps 743 mmHg 53%
Show more